Tracking 19969 objects as of 12-Nov-2019
Live streaming from Space Station
objects crossing your sky now
Track the group of recently launched Starlink satellites

KIKU 1 (ETS 1)

Track KIKU 1 (ETS 1) now!
10-day predictions
KIKU 1 (ETS 1) is classified as:


NORAD ID: 8197
Int'l Code: 1975-082A
Perigee: 981.2 km
Apogee: 1,108.0 km
Inclination: 47.0 °
Period: 105.9 minutes
Semi major axis: 7415 km
RCS: 1.482 m2 (large)
Launch date: September 9, 1975
Source: Japan (JPN)
Launch site: TANEGASHIMA SPACE CENTER (TNSTA)
aabbcc
Your satellite tracking list
Your tracking list is empty




NASA's NSSDC Master Catalog

Two Line Element Set (TLE):
1  8197U 75082A   19315.85203392 -.00000098 +00000-0 +37755-4 0  9997
2  8197 046.9873 190.4669 0085519 046.3031 007.8528 13.59514776194590
Source of the keplerian elements: AFSPC